EDT,Max TemperatureF,Mean TemperatureF,Min TemperatureF,Max Dew PointF,MeanDew PointF,Min DewpointF,Max Humidity, Mean Humidity, Min Humidity, Max Sea Level PressureIn, Mean Sea Level PressureIn, Min Sea Level PressureIn, Max VisibilityMiles, Mean VisibilityMiles, Min VisibilityMiles, Max Wind SpeedMPH, Mean Wind SpeedMPH, Max Gust SpeedMPH,PrecipitationIn, CloudCover, Events, WindDirDegrees
2011-10-1,51,48,44,48,42,36,92,77,61,30.05,29.94,29.77,10,10,6,18,9,24,T,8,Rain,6
2011-10-2,51,48,44,49,46,41,93,90,86,30.01,29.98,29.97,10,5,1,20,11,25,T,8,Rain,40
2011-10-3,57,54,51,52,50,48,93,90,86,30.10,30.04,29.95,10,7,2,13,7,15,T,8,Rain,56
2011-10-4,60,53,46,55,53,48,96,88,80,30.12,30.10,30.08,10,6,0,8,3,9,0.02,7,Fog-Rain,332
2011-10-5,61,49,37,48,41,28,100,66,32,30.33,30.15,30.06,10,6,0,17,6,26,0.00,3,Fog,315
2011-10-6,59,45,30,35,32,27,92,61,30,30.44,30.38,30.34,10,10,10,10,2,14,0.00,0,,296
2011-10-7,70,53,35,50,41,32,100,74,48,30.44,30.40,30.36,10,10,9,15,6,18,0.00,1,,221
2011-10-8,78,62,45,53,48,41,86,63,40,30.45,30.39,30.34,10,10,10,20,9,23,0.00,0,,221
2011-10-9,79,63,46,58,52,44,93,70,47,30.39,30.32,30.24,10,10,6,18,8,24,0.00,0,,228
2011-10-10,77,63,49,57,53,45,89,70,50,30.29,30.25,30.20,10,10,7,10,4,14,0.00,1,,245
2011-10-11,67,56,44,44,41,36,93,64,34,30.29,30.23,30.19,10,10,10,15,7,17,0.00,0,,51
2011-10-12,62,55,47,52,48,42,93,79,64,30.18,30.10,29.99,10,10,8,10,4,13,T,3,Rain,53
2011-10-13,64,59,53,57,53,51,93,86,78,29.98,29.86,29.68,10,6,1,14,7,17,T,7,Rain,71
2011-10-14,77,67,57,63,58,54,93,77,60,29.65,29.37,29.22,10,9,1,18,10,25,0.29,7,Rain,145
2011-10-15,57,53,48,53,46,43,86,80,74,29.44,29.31,29.21,10,8,1,29,16,38,T,8,Rain,225
2011-10-16,59,54,48,46,41,38,86,67,47,29.66,29.57,29.44,10,10,10,24,14,35,0.00,7,Rain,225
2011-10-17,54,48,41,45,41,37,86,70,54,29.66,29.58,29.53,10,10,5,23,9,30,T,7,Rain,226
2011-10-18,58,50,42,47,43,39,93,75,57,29.94,29.79,29.65,10,10,10,17,7,22,T,6,Rain,219
2011-10-19,56,50,44,48,45,41,96,84,71,29.96,29.87,29.65,10,10,7,26,14,38,T,8,Rain,53
2011-10-20,59,52,45,55,50,43,93,88,83,29.60,29.40,29.28,10,7,0,29,13,38,0.45,8,Fog-Rain,62
2011-10-21,55,51,46,47,44,42,86,79,71,29.93,29.74,29.54,10,9,2,23,10,30,0.07,8,Rain,221
2011-10-22,51,44,36,45,40,35,100,81,61,30.08,30.03,29.93,10,8,0,13,4,16,0.01,6,Fog-Rain,244
2011-10-23,53,43,33,43,38,32,96,75,54,30.13,30.10,30.08,10,10,8,12,1,15,0.00,6,,225
2011-10-24,67,49,31,49,39,28,92,65,37,30.09,29.95,29.81,10,8,1,24,8,37,0.14,3,Rain,190
2011-10-25,52,43,34,41,37,31,89,68,46,30.05,29.97,29.87,10,10,10,21,9,29,T,5,,254
2011-10-26,50,42,34,37,33,29,92,73,54,30.05,29.93,29.85,10,10,10,13,4,15,0.00,6,,356
2011-10-27,41,34,27,29,25,22,78,63,48,30.04,29.91,29.86,10,10,10,14,7,17,0.00,3,,4
2011-10-28,47,35,23,28,23,19,88,63,38,30.28,30.19,30.06,10,10,10,16,5,23,0.00,1,,261
2011-10-29,43,32,20,28,23,18,88,67,45,30.29,30.22,30.12,10,10,10,17,6,21,0.00,0,,53
2011-10-30,49,37,25,31,25,21,88,63,38,30.28,30.19,30.12,10,10,10,15,5,21,0.00,1,,295
2011-10-31,54,40,26,33,29,24,92,65,38,30.33,30.29,30.24,10,10,10,13,3,16,0.00,2,,192